Location: Boise
(43.6140°N, 116.2030°W)
Time: 05:50:07
(UTC-06:00)

Daily predictions for brighter satellites

Satellite Brightness Start Highest point End
(mag) Time Altitude Azimuth Time Altitude Azimuth Time Altitude Azimuth
Cosmos 1805 3.8 00:08:27 10° N 00:12:06 45° ENE 00:12:06 45° ENE
Cosmos 2369 Rocket 2.5 00:17:49 10° NNW 00:23:22 55° WSW 00:24:43 44° SSW
Cosmos 407 Rocket 3.5 00:23:10 44° SSW 00:24:51 79° WNW 00:30:07 10° NNE
Terra 3.0 00:26:32 29° SW 00:27:43 33° W 00:32:02 10° NNW
Cosmos 1346 Rocket 4.1 00:28:12 29° WSW 00:29:05 33° WNW 00:32:39 10° N
CZ-4B R/B 3.3 00:31:05 24° ENE 00:31:05 24° ENE 00:33:44 10° NNE
Cosmos 2279 Rocket 4.4 00:24:44 10° NNW 00:30:50 57° W 00:33:07 37° SSW
COSMOS 2406 3.6 00:37:43 43° ESE 00:37:52 43° ESE 00:43:16 10° NE
Cosmos 1758 3.5 00:34:57 10° NNW 00:38:53 70° WNW 00:38:53 70° WNW
Cosmos 2263 4.4 00:34:51 10° NNW 00:40:20 56° WSW 00:41:18 49° SSW
Cosmos 1954 Rocket 3.9 00:41:32 63° SSW 00:42:25 87° ESE 00:47:45 10° NNE
H-2A R/B 3.5 00:42:54 21° WSW 00:44:16 24° W 00:48:16 10° NW
ATLAS 3B R/B 3.0 00:39:55 20° SW 00:45:33 81° NW 00:53:06 10° NE
Cosmos 1900 4.3 00:45:11 65° SSW 00:45:59 90° WNW 00:51:10 10° NNE
Cosmos 1340 4.1 00:49:58 29° ENE 00:49:58 29° ENE 00:52:22 10° NNE
Okean 3 Rocket 4.1 00:52:53 46° ENE 00:52:53 46° ENE 00:56:40 10° NNE
Cosmos 1842 4.4 00:52:40 35° W 00:52:53 35° WNW 00:56:31 10° N
Cosmos 1932 4.3 00:53:26 58° S 00:54:29 68° ESE 01:00:40 10° NE
Cosmos 1707 4.1 00:55:30 32° ENE 00:55:30 32° ENE 00:58:14 10° NNE
Cosmos 1741 Rocket 4.2 00:54:38 55° ESE 00:54:42 55° ESE 00:59:54 10° NNE
Cosmos 1570 Rocket 3.9 01:00:12 10° NNW 01:05:35 83° WSW 01:06:06 73° S
Cosmos 2221 3.2 01:01:53 10° N 01:05:49 45° ENE 01:05:49 45° ENE
Helios 1A Rocket 4.1 01:02:31 10° NNE 01:05:24 34° ENE 01:05:24 34° ENE
Meteor 1-24 Rocket 4.4 01:09:15 40° ESE 01:10:03 42° E 01:15:39 10° NNE
Meteor 2-5 Rocket 3.7 01:10:19 62° SSE 01:11:12 74° E 01:17:01 10° NNE
USA 238 DEB 3.7 01:10:53 51° S 01:12:44 72° ESE 01:19:47 10° NE
USA 238 3.7 01:11:01 52° S 01:12:49 72° ESE 01:19:52 10° NE
Cosmos 2084 3.7 01:09:03 10° NW 01:12:44 66° N 01:12:44 66° N
H-2A R/B 2.8 01:10:42 10° NNE 01:13:49 56° N 01:13:49 56° N
ALOS 2 2.6 01:15:07 79° NNW 01:15:07 79° NNW 01:19:16 10° NNW
Cosmos 1850 Rocket 3.8 01:14:44 77° S 01:15:06 86° ESE 01:20:22 10° NNE
COSMOS 2487 4.2 01:17:07 27° NE 01:17:07 27° NE 01:19:03 10° NNE
Landsat 5 3.8 01:16:35 58° N 01:16:35 58° N 01:19:53 10° N
Cosmos 1607 3.9 01:17:19 57° SE 01:17:52 59° ESE 01:24:00 10° NE
ISS -0.8 01:20:03 19° NE 01:20:03 19° NE 01:21:09 10° NE
Cosmos 1553 Rocket 4.4 01:18:18 10° N 01:24:29 54° ENE 01:26:06 44° ESE
Meteor 2-1 Rocket 4.3 01:24:42 10° N 01:30:39 73° ENE 01:31:39 60° SE
CZ-4C R/B 3.2 01:34:00 32° ESE 01:34:00 32° ESE 01:38:36 10° NE
Lacrosse 4 Rocket 3.4 01:35:04 19° WNW 01:36:30 22° NW 01:39:47 10° N
Cosmos 1733 4.2 01:33:59 10° NNW 01:36:52 42° NW 01:36:52 42° NW
Cosmos 1408 Rocket 3.8 01:39:17 65° ENE 01:39:17 65° ENE 01:43:20 10° NNE
Cosmos 1470 4.1 01:36:36 10° NNW 01:39:20 32° WNW 01:39:20 32° WNW
Cosmos 1655 Rocket 4.0 01:41:27 58° SSW 01:42:47 81° W 01:49:06 10° N
Cosmos 1943 Rocket 3.2 01:38:02 10° NW 01:42:50 31° WSW 01:42:50 31° WSW
Cosmos 468 Rocket 4.3 01:39:48 10° NNW 01:45:02 58° ENE 01:45:53 51° ESE
Cosmos 1814 Rocket 4.5 01:41:45 10° NNW 01:46:55 54° ENE 01:47:57 46° ESE
NOSS 3-2 (C) 4.0 01:46:58 41° ESE 01:47:16 41° ESE 01:53:23 10° NE
S3M 3.9 01:42:26 10° N 01:48:45 83° E 01:50:00 60° SSE
Lacrosse 5 4.3 01:52:04 10° NW 01:55:57 21° NNE 01:59:50 10° ENE
Cosmos 1486 Rocket 4.5 01:56:19 45° ESE 01:56:22 45° ESE 02:01:19 10° NNE
Cosmos 2266 Rocket 4.5 01:55:39 42° SE 01:57:09 50° E 02:03:19 10° NNE
Cosmos 1378 4.0 01:58:38 49° NNE 01:58:38 49° NNE 02:01:31 10° NNE
Cosmos 1743 Rocket 3.9 02:02:52 57° ENE 02:02:52 57° ENE 02:06:55 10° NNE
CZ-4B R/B 3.8 02:04:51 18° WNW 02:04:51 18° WNW 02:06:26 10° NW
Cosmos 2369 4.1 02:00:29 10° NNW 02:06:04 56° ENE 02:07:56 39° ESE
Cosmos 1656 Rocket 4.2 02:00:45 10° NW 02:06:05 42° WSW 02:06:05 42° WSW
BREEZE-M DEB (TANK) 4.1 01:52:17 10° WSW 02:07:10 63° NNW 02:11:04 10° ENE
Cosmos 405 Rocket 3.3 02:09:45 55° N 02:09:45 55° N 02:12:48 10° N
Cosmos 2344 4.1 02:08:27 39° SSE 02:10:27 46° ESE 02:18:29 10° NE
CZ-2C R/B 2.6 02:05:47 10° NNE 02:11:25 86° ESE 02:12:11 68° S
CZ-2C R/B 3.3 02:10:39 53° SE 02:11:48 68° ENE 02:17:24 10° N
BREEZE-M TANK 3.9 01:57:12 10° SW 02:12:03 48° SSE 02:15:43 10° E
Cosmos 1428 Rocket 4.4 02:11:36 56° SW 02:12:51 73° W 02:19:03 10° N
Cosmos 1151 Rocket 4.1 02:12:00 10° N 02:15:58 36° ENE 02:16:20 35° E
Cosmos 1766 Rocket 4.0 02:16:38 52° WNW 02:16:38 52° WNW 02:20:54 10° N
Cosmos 1867 4.3 02:18:03 37° ESE 02:18:09 37° ESE 02:23:09 10° NE
In-Cosmos 22 4.2 02:19:18 60° SE 02:20:05 69° E 02:25:41 10° NNE
Cosmos 1500 Rocket 3.7 02:21:56 62° ENE 02:21:56 62° ENE 02:25:59 10° NNE
Cosmos 2228 Rocket 3.3 02:17:21 10° NNW 02:21:19 59° WNW 02:21:19 59° WNW
MOS 1-B Rocket 4.5 02:23:24 45° S 02:26:10 76° WSW 02:33:11 10° NNW
ASTEX 1 4.0 02:25:14 10° NNE 02:30:03 47° E 02:30:48 43° ESE
Cosmos 2278 3.6 02:24:42 10° NNW 02:30:23 84° WSW 02:31:23 62° S
Cosmos 1328 Rocket 3.7 02:27:11 10° NNW 02:31:09 62° WNW 02:31:09 62° WNW
Cosmos 1763 Rocket 3.6 02:27:46 10° NNW 02:33:07 73° ENE 02:34:19 53° SE
NOSS 3-2 (A) 3.5 02:32:26 50° SW 02:34:12 83° NW 02:40:57 10° NE
Cosmos 2151 4.0 02:34:54 36° E 02:35:06 37° E 02:39:02 10° NNE
SL-8 R/B 3.7 02:31:36 10° WNW 02:35:54 68° W 02:35:54 68° W
Cosmos 1980 Rocket 4.0 02:33:57 10° N 02:38:46 28° NE 02:43:34 10° ESE
Cosmos 1441 Rocket 4.0 02:39:09 45° E 02:39:09 45° E 02:42:45 10° NNE
Cosmos 1515 Rocket 3.6 02:34:38 10° NNW 02:38:53 70° WNW 02:38:53 70° WNW
Cosmos 1354 Rocket 4.2 02:38:42 53° SE 02:39:27 58° ESE 02:44:40 10° NNE
Cosmos 1503 Rocket 4.1 02:47:34 56° SSE 02:48:28 67° ESE 02:53:46 10° NNE
Cosmos 2058 4.2 02:48:30 29° ESE 02:49:03 30° E 02:52:45 10° NNE
ERS-2 3.7 02:47:59 10° NE 02:51:10 27° E 02:51:10 27° E
Cosmos 2082 Rocket 2.3 02:53:33 52° SSE 02:54:46 67° ESE 03:00:24 10° NNE
ISS -0.7 02:52:36 11° NW 02:55:00 20° N 02:57:30 10° NE
Cosmos 1328 4.3 02:56:56 49° ESE 02:57:05 49° E 03:00:58 10° NNE
Meteor 2-2 Rocket 4.3 02:54:06 10° NNW 02:59:43 65° W 03:00:57 52° SSW
Nadezhda 2 Rocket 4.5 02:58:04 47° SSW 03:00:03 82° W 03:06:24 10° N
Cosmos 1697 Rocket 3.1 02:55:51 10° NNW 03:01:31 62° ENE 03:05:05 23° SE
USA 215 3.2 02:55:38 10° NE 03:02:10 73° SE 03:04:33 42° SSW
Cosmos 405 3.6 03:00:37 10° N 03:04:08 52° ENE 03:04:10 52° E
NPP 4.5 02:59:57 10° NNE 03:05:04 41° E 03:07:00 30° SE
Cosmos 841 Rocket 3.5 03:03:45 10° NNW 03:08:56 62° WSW 03:09:43 54° SW
Cosmos 1805 Rocket 3.9 03:11:17 49° SE 03:12:05 58° E 03:16:26 10° NNE
Landsat 4 3.7 03:12:35 67° WNW 03:12:35 67° WNW 03:16:01 10° NNW
Cosmos 1833 Rocket 2.7 03:10:56 47° S 03:12:30 72° ESE 03:18:08 10° NNE
Cosmos 2315 Rocket 4.2 03:11:38 10° NNW 03:17:50 58° W 03:19:47 41° SSW
Cosmos 1674 3.0 03:18:46 51° WNW 03:18:46 51° WNW 03:22:14 10° N
Cosmos 1437 4.0 03:18:31 35° E 03:18:34 35° E 03:21:40 10° NNE
Lacrosse 5 rocket 4.2 03:17:41 10° NNW 03:20:56 20° NNE 03:24:17 10° ENE
CZ-4C R/B 3.0 03:19:10 27° W 03:21:45 45° NW 03:27:39 10° NNE
Iridium 2 3.5 03:22:26 79° WSW 03:22:30 79° W 03:26:20 10° N
BREEZE-M DEB (TANK) 3.7 03:19:50 10° WNW 03:22:42 62° NNE 03:31:28 10° ESE
Cosmos 1633 Rocket 3.8 03:22:00 35° SE 03:23:20 47° E 03:27:35 10° NNE
Cosmos 1707 Rocket 3.5 03:20:08 10° N 03:24:32 79° E 03:25:36 50° SSE
Cosmos 1818 4.1 03:21:58 10° NW 03:26:59 38° WSW 03:27:01 38° WSW
SL-08 R/B 3.5 03:25:25 32° SSE 03:27:37 71° ENE 03:32:30 10° N
Cosmos 1666 Rocket 3.7 03:27:24 47° SSE 03:28:26 65° E 03:32:44 10° NNE
ADEOS 4.5 03:25:57 10° NNE 03:30:53 41° E 03:33:32 24° SSE
Cosmos 1726 2.5 03:29:58 10° N 03:33:37 59° E 03:34:30 44° SE
Cosmos 332 Rocket 4.3 03:28:59 10° NNW 03:33:44 57° ENE 03:37:26 16° SE
SL-16 R/B 4.1 03:29:57 10° N 03:34:54 30° NE 03:39:51 10° ESE
USA 161 3.4 03:36:57 20° ENE 03:37:06 21° ENE 03:38:59 10° NNE
NOSS 3-2 (C) 4.4 03:34:23 22° WSW 03:38:09 43° NW 03:44:39 10° NNE
PSLV R/B 4.1 03:35:10 10° N 03:39:40 49° WNW 03:40:49 39° WSW
Cosmos 1745 Rocket 4.0 03:36:29 31° S 03:39:46 82° E 03:46:08 10° N
Lacrosse 5 2.4 03:34:49 10° NW 03:39:49 58° NE 03:44:48 10° ESE
CBERS-1 4.1 03:36:54 10° NNE 03:42:01 72° ESE 03:44:15 34° S
TRAILBLAZER 4.5 03:37:58 10° NW 03:42:34 75° WSW 03:44:40 31° SSE
Meteor 1-11 4.2 03:42:29 34° S 03:45:08 89° ESE 03:51:00 10° N
IRS-1C 4.3 03:41:56 10° NNE 03:47:16 67° ESE 03:50:01 29° S
Nadezhda 1 Rocket 3.9 03:41:45 10° N 03:47:59 87° E 03:52:04 22° S
CENTAUR R/B 2.6 03:45:04 33° SSW 03:47:59 70° ESE 03:54:49 10° NE
IRAS Rocket 4.4 03:44:23 10° N 03:49:47 57° WNW 03:52:06 33° SW
Cosmos 1656 4.1 03:44:43 10° NW 03:50:04 43° WSW 03:51:42 34° SW
Cosmos 2322 Rocket 3.5 03:45:05 10° NNW 03:50:24 40° ENE 03:55:39 10° SE
Genesis I 3.4 03:46:45 10° NW 03:50:31 49° WSW 03:50:31 49° WSW
ARIANE 5 R/B 3.7 03:47:45 10° NNE 03:52:29 36° E 03:56:07 15° SSE
Cosmos 1437 Rocket 4.1 03:49:16 10° NW 03:52:12 24° W 03:52:12 24° W
Cosmos 1626 4.1 03:50:39 14° SE 03:52:56 25° E 03:56:02 10° NE
Okean O Rocket 4.4 03:54:48 10° ENE 03:56:09 11° E 03:57:31 10° ESE
IRS-P3 4.4 03:56:09 10° N 04:01:21 55° WNW 04:03:47 30° SW
Sich 1 3.3 04:07:35 35° SW 04:09:07 52° WNW 04:13:27 10° N
Aureole 1 Rocket 4.1 04:09:05 10° NW 04:13:07 34° WSW 04:14:51 28° SW
Resurs 1-4 Rocket 3.1 04:08:21 10° NNE 04:13:23 41° E 04:18:14 11° SSE
Cosmos 1862 Rocket 3.7 04:12:28 10° N 04:16:59 76° E 04:20:50 14° SSE
Cosmos 1300 3.8 04:14:07 10° NNW 04:17:24 27° W 04:17:51 27° WSW
Cosmos 1980 Rocket 2.4 04:17:36 10° NW 04:23:00 49° WSW 04:27:25 15° S
Cosmos 2360 Rocket 4.3 04:18:44 10° N 04:23:36 29° NE 04:28:26 10° ESE
ERS-2 3.8 04:22:01 10° NNW 04:24:52 21° WNW 04:26:02 18° W
Cosmos 2058 4.4 04:24:45 19° W 04:26:02 22° WNW 04:29:21 10° NNW
Cosmos 371 Rocket 3.2 04:22:28 10° NNW 04:27:18 68° WSW 04:32:05 10° S
Cosmos 2242 Rocket 4.3 04:24:23 10° NNW 04:28:25 35° W 04:30:09 25° SW
BREEZE-M DEB (TANK) 4.1 04:17:10 10° W 04:28:26 71° N 04:32:08 10° ENE
Cosmos 540 Rocket 4.3 04:25:34 10° NW 04:30:04 31° W 04:32:14 22° SW
ISS -0.9 04:29:25 10° NW 04:32:12 25° NNE 04:34:58 10° ENE
Abrixas 2.9 04:33:54 23° W 04:35:34 59° NNW 04:38:38 10° ENE
Cosmos 2181 Rocket 4.0 04:29:27 10° N 04:35:37 89° W 04:41:49 10° S
Cosmos 1869 3.2 04:32:40 10° N 04:36:38 90° NW 04:40:31 11° S
Cosmos 2082 Rocket 3.9 04:35:24 11° W 04:39:23 22° NW 04:43:44 10° N
UNKNOWN OBJECT B 3.6 04:37:28 10° NNE 04:41:08 47° E 04:44:50 10° S
Cosmos 1697 Rocket 4.0 04:40:57 10° NW 04:44:56 20° W 04:46:45 17° SW
USA 215 4.1 04:38:50 10° NE 04:44:56 44° NNW 04:51:02 10° W
Cosmos 1455 2.3 04:41:39 10° NNW 04:45:24 57° W 04:48:22 15° S
CZ-2D R/B 2.2 04:41:29 10° NNE 04:46:44 79° ESE 04:51:54 11° S
Cosmos 1933 3.7 04:46:03 10° N 04:50:03 65° E 04:54:03 10° SSE
Cosmos 304 Rocket 4.4 04:46:02 10° NNW 04:50:49 58° ENE 04:55:34 10° SSE
SL-16 R/B 2.6 04:50:23 10° S 04:56:34 63° WSW 05:02:48 10° NNW
Cosmos 1833 Rocket 4.4 04:52:51 10° W 04:57:02 21° NW 05:01:13 10° N
Lacrosse 5 rocket 1.8 04:56:29 10° NW 05:00:52 71° NE 05:05:26 10° SE
Cosmos 968 Rocket 4.1 04:58:17 15° SW 05:02:08 42° WNW 05:07:01 10° N
EO 1 Del DPAF 4.2 05:03:38 13° SSW 05:06:29 29° W 05:09:58 10° NW
Cosmos 923 Rocket 4.0 05:01:18 10° NNW 05:06:32 65° WSW 05:11:42 10° S
Meteor 1-4 Rocket 3.9 05:06:48 10° NW 05:09:53 24° W 05:12:29 13° SW
Cosmos 1703 Rocket 3.5 05:06:55 10° NNW 05:11:17 72° W 05:15:36 10° S
ATLAS 5 CENTAUR R/B 2.7 05:08:48 10° SSW 05:13:26 47° ESE 05:18:25 10° NE
Cosmos 2074 Rocket 4.0 05:09:48 10° S 05:16:01 90° WSW 05:22:18 10° N
Cosmos 2184 Rocket 4.1 05:10:09 10° S 05:16:32 88° E 05:22:56 10° N
Cosmos 1680 Rocket 3.5 05:12:24 10° NNW 05:17:35 68° WSW 05:22:44 10° S
Cosmos 1271 Rocket 4.2 05:16:02 10° NW 05:18:49 19° W 05:21:24 11° SW
SL-24 DEB 4.5 05:14:12 10° N 05:18:54 76° E 05:23:32 10° S
SL-16 R/B 2.5 05:13:48 10° NW 05:19:11 45° WSW 05:24:33 10° S
Thor Agena Rocket 3.7 05:14:10 10° SSE 05:19:28 88° ENE 05:24:48 10° NNW
Lacrosse 5 2.7 05:18:15 10° WNW 05:22:29 27° SW 05:26:42 10° S
FALCON 9 R/B 2.4 05:23:09 10° SSW 05:24:10 12° S 05:25:16 10° SE
IRS-1D 4.4 05:20:40 10° N 05:25:35 38° WNW 05:30:27 10° SW
Cosmos 1626 3.7 05:25:25 10° SW 05:28:19 21° WNW 05:31:15 10° NNW
CZ-2C R/B 3.7 05:23:59 10° S 05:28:22 60° WSW 05:32:52 10° NNW
Cosmos 2327 Rocket 4.5 05:23:44 10° SSW 05:29:48 71° W 05:35:59 10° N
CZ-2D R/B 3.6 05:27:11 10° N 05:31:22 60° WNW 05:35:25 10° SSW
ARIANE 5 R/B 3.6 05:27:06 10° N 05:31:30 29° WNW 05:35:49 10° SW
Okean O Rocket 1.7 05:28:37 10° N 05:33:04 73° WNW 05:37:27 10° SSW
BREEZE-M DEB (TANK) 3.9 05:23:26 10° SW 05:33:11 43° SSE 05:36:29 10° ENE
Cosmos 2322 Rocket 2.9 05:29:24 10° NW 05:34:18 31° WSW 05:39:10 10° SSW
CENTAUR R/B 3.9 05:33:39 10° W 05:39:17 31° NW 05:45:32 10° NNE
Meteor 1-26 Rocket 4.2 05:34:03 10° NNW 05:39:36 69° W 05:45:03 10° S
ADEOS II 3.9 05:36:42 10° NNE 05:41:22 31° E 05:46:00 10° SSE
